Year,Month,Day,Hour,Minute,Value (Times are PST for temperature in C)
2013,09,01,00,00,13.70
2013,09,01,00,01,13.70
2013,09,01,00,02,13.70
2013,09,01,00,03,13.70
2013,09,01,00,04,13.70
2013,09,01,00,05,13.70
2013,09,01,00,06,13.70
2013,09,01,00,07,13.70
2013,09,01,00,08,13.70
2013,09,01,00,09,13.60
2013,09,01,00,10,13.60
2013,09,01,00,11,13.60
2013,09,01,00,12,13.60
2013,09,01,00,13,13.60
2013,09,01,00,14,13.60
2013,09,01,00,15,13.60
2013,09,01,00,16,13.60
2013,09,01,00,17,13.60
2013,09,01,00,18,13.60
2013,09,01,00,19,13.50
2013,09,01,00,20,13.50
2013,09,01,00,21,13.50
2013,09,01,00,22,13.50
2013,09,01,00,23,13.50
2013,09,01,00,24,13.50
2013,09,01,00,25,13.40
2013,09,01,00,26,13.40
2013,09,01,00,27,13.40
2013,09,01,00,28,13.40
2013,09,01,00,29,13.40
2013,09,01,00,30,13.40
2013,09,01,00,31,13.40
2013,09,01,00,32,13.40
2013,09,01,00,33,13.40
2013,09,01,00,34,13.40
2013,09,01,00,35,13.40
2013,09,01,00,36,13.30
2013,09,01,00,37,13.30
2013,09,01,00,38,13.30
2013,09,01,00,39,13.30
2013,09,01,00,40,13.30
2013,09,01,00,41,13.30
2013,09,01,00,42,13.30
2013,09,01,00,43,13.30
2013,09,01,00,44,13.20
2013,09,01,00,45,13.20
2013,09,01,00,46,13.20
2013,09,01,00,47,13.20
2013,09,01,00,48,13.20
2013,09,01,00,49,13.20
2013,09,01,00,50,13.20
2013,09,01,00,51,13.20
2013,09,01,00,52,13.20
2013,09,01,00,53,13.20
2013,09,01,00,54,13.20
2013,09,01,00,55,13.20
2013,09,01,00,56,13.10
2013,09,01,00,57,13.10
2013,09,01,00,58,13.10
2013,09,01,00,59,13.10
2013,09,01,01,00,13.10
2013,09,01,01,01,13.10
2013,09,01,01,02,13.10
2013,09,01,01,03,13.00
2013,09,01,01,04,13.00
2013,09,01,01,05,13.00
2013,09,01,01,06,13.00
2013,09,01,01,07,13.00
2013,09,01,01,08,13.00
2013,09,01,01,09,12.90
2013,09,01,01,10,12.90
2013,09,01,01,11,12.90
2013,09,01,01,12,12.90
2013,09,01,01,13,12.90
2013,09,01,01,14,12.90
2013,09,01,01,15,12.90
2013,09,01,01,16,12.80
2013,09,01,01,17,12.80
2013,09,01,01,18,12.80
2013,09,01,01,19,12.80
2013,09,01,01,20,12.80
2013,09,01,01,21,12.80
2013,09,01,01,22,12.80
2013,09,01,01,23,12.80
2013,09,01,01,24,12.80
2013,09,01,01,25,12.80
2013,09,01,01,26,12.80
2013,09,01,01,27,12.80
2013,09,01,01,28,12.80
2013,09,01,01,29,12.70
2013,09,01,01,30,12.70
2013,09,01,01,31,12.70
2013,09,01,01,32,12.70
2013,09,01,01,33,12.70
2013,09,01,01,34,12.70
2013,09,01,01,35,12.70
2013,09,01,01,36,12.70
2013,09,01,01,37,12.70
2013,09,01,01,38,12.70
2013,09,01,01,39,12.60
2013,09,01,01,40,12.60
2013,09,01,01,41,12.60
2013,09,01,01,42,12.60
2013,09,01,01,43,12.60
2013,09,01,01,44,12.60
2013,09,01,01,45,12.60
2013,09,01,01,46,12.60
2013,09,01,01,47,12.60
2013,09,01,01,48,12.60
2013,09,01,01,49,12.60
2013,09,01,01,50,12.60
2013,09,01,01,51,12.60
2013,09,01,01,52,12.60
2013,09,01,01,53,12.60
2013,09,01,01,54,12.60
2013,09,01,01,55,12.60
2013,09,01,01,56,12.60
2013,09,01,01,57,12.60
2013,09,01,01,58,12.60
2013,09,01,01,59,12.60
2013,09,01,02,00,12.60
2013,09,01,02,01,12.60
2013,09,01,02,02,12.60
2013,09,01,02,03,12.60
2013,09,01,02,04,12.60
2013,09,01,02,05,12.60
2013,09,01,02,06,12.60
2013,09,01,02,07,12.60
2013,09,01,02,08,12.60
2013,09,01,02,09,12.60
2013,09,01,02,10,12.60
2013,09,01,02,11,12.60
2013,09,01,02,12,12.60
2013,09,01,02,13,12.60
2013,09,01,02,14,12.60
2013,09,01,02,15,12.60
2013,09,01,02,16,12.60
2013,09,01,02,17,12.60
2013,09,01,02,18,12.60
2013,09,01,02,19,12.60
2013,09,01,02,20,12.60
2013,09,01,02,21,12.60
2013,09,01,02,22,12.60
2013,09,01,02,23,12.60
2013,09,01,02,24,12.60
2013,09,01,02,25,12.60
2013,09,01,02,26,12.50
2013,09,01,02,27,12.50
2013,09,01,02,28,12.50
2013,09,01,02,29,12.50
2013,09,01,02,30,12.60
2013,09,01,02,31,12.60
2013,09,01,02,32,12.60
2013,09,01,02,33,12.60
2013,09,01,02,34,12.60
2013,09,01,02,35,12.60
2013,09,01,02,36,12.60
2013,09,01,02,37,12.60
2013,09,01,02,38,12.60
2013,09,01,02,39,12.60
2013,09,01,02,40,12.60
2013,09,01,02,41,12.60
2013,09,01,02,42,12.70
2013,09,01,02,43,12.70
2013,09,01,02,44,12.70
2013,09,01,02,45,12.70
2013,09,01,02,46,12.70
2013,09,01,02,47,12.70
2013,09,01,02,48,12.70
2013,09,01,02,49,12.70
2013,09,01,02,50,12.70
2013,09,01,02,51,12.70
2013,09,01,02,52,12.70
2013,09,01,02,53,12.70
2013,09,01,02,54,12.70
2013,09,01,02,55,12.70
2013,09,01,02,56,12.70
2013,09,01,02,57,12.70
2013,09,01,02,58,12.70
2013,09,01,02,59,12.70
2013,09,01,03,00,12.70
2013,09,01,03,01,12.70
2013,09,01,03,02,12.70
2013,09,01,03,03,12.70
2013,09,01,03,04,12.70
2013,09,01,03,05,12.70
2013,09,01,03,06,12.70
2013,09,01,03,07,12.70
2013,09,01,03,08,12.70
2013,09,01,03,09,12.70
2013,09,01,03,10,12.70
2013,09,01,03,11,12.70
2013,09,01,03,12,12.70
2013,09,01,03,13,12.70
2013,09,01,03,14,12.70
2013,09,01,03,15,12.60
2013,09,01,03,16,12.60
2013,09,01,03,17,12.60
2013,09,01,03,18,12.60
2013,09,01,03,19,12.60
2013,09,01,03,20,12.60
2013,09,01,03,21,12.60
2013,09,01,03,22,12.50
2013,09,01,03,23,12.50
2013,09,01,03,24,12.50
2013,09,01,03,25,12.50
2013,09,01,03,26,12.50
2013,09,01,03,27,12.50
2013,09,01,03,28,12.50
2013,09,01,03,29,12.50
2013,09,01,03,30,12.60
2013,09,01,03,31,12.60
2013,09,01,03,32,12.60
2013,09,01,03,33,12.60
2013,09,01,03,34,12.60
2013,09,01,03,35,12.60
2013,09,01,03,36,12.60
2013,09,01,03,37,12.60
2013,09,01,03,38,12.60
2013,09,01,03,39,12.60
2013,09,01,03,40,12.60
2013,09,01,03,41,12.60
2013,09,01,03,42,12.60
2013,09,01,03,43,12.60
2013,09,01,03,44,12.60
2013,09,01,03,45,12.60
2013,09,01,03,46,12.60
2013,09,01,03,47,12.60
2013,09,01,03,48,12.60
2013,09,01,03,49,12.60
2013,09,01,03,50,12.60
2013,09,01,03,51,12.60
2013,09,01,03,52,12.60
2013,09,01,03,53,12.60
2013,09,01,03,54,12.50
2013,09,01,03,55,12.50
2013,09,01,03,56,12.50
2013,09,01,03,57,12.50
2013,09,01,03,58,12.50
2013,09,01,03,59,12.50
2013,09,01,04,00,12.40
2013,09,01,04,01,12.40
2013,09,01,04,02,12.40
2013,09,01,04,03,12.40
2013,09,01,04,04,12.40
2013,09,01,04,05,12.40
2013,09,01,04,06,12.40
2013,09,01,04,07,12.40
2013,09,01,04,08,12.40
2013,09,01,04,09,12.40
2013,09,01,04,10,12.40
2013,09,01,04,11,12.30
2013,09,01,04,12,12.30
2013,09,01,04,13,12.30
2013,09,01,04,14,12.30
2013,09,01,04,15,12.30
2013,09,01,04,16,12.30
2013,09,01,04,17,12.30
2013,09,01,04,18,12.30
2013,09,01,04,19,12.30
2013,09,01,04,20,12.30
2013,09,01,04,21,12.30
2013,09,01,04,22,12.30
2013,09,01,04,23,12.30
2013,09,01,04,24,12.30
2013,09,01,04,25,12.30
2013,09,01,04,26,12.30
2013,09,01,04,27,12.30
2013,09,01,04,28,12.30
2013,09,01,04,29,12.20
2013,09,01,04,30,12.20
2013,09,01,04,31,12.20
2013,09,01,04,32,12.20
2013,09,01,04,33,12.20
2013,09,01,04,34,12.20
2013,09,01,04,35,12.30
2013,09,01,04,36,12.30
2013,09,01,04,37,12.30
2013,09,01,04,38,12.30
2013,09,01,04,39,12.30
2013,09,01,04,40,12.30
2013,09,01,04,41,12.30
2013,09,01,04,42,12.30
2013,09,01,04,43,12.30
2013,09,01,04,44,12.30
2013,09,01,04,45,12.30
2013,09,01,04,46,12.30
2013,09,01,04,47,12.30
2013,09,01,04,48,12.30
2013,09,01,04,49,12.30
2013,09,01,04,50,12.30
2013,09,01,04,51,12.30
2013,09,01,04,52,12.30
2013,09,01,04,53,12.20
2013,09,01,04,54,12.30
2013,09,01,04,55,12.30
2013,09,01,04,56,12.30
2013,09,01,04,57,12.30
2013,09,01,04,58,12.30
2013,09,01,04,59,12.30
2013,09,01,05,00,12.30
2013,09,01,05,01,12.30
2013,09,01,05,02,12.30
2013,09,01,05,03,12.30
2013,09,01,05,04,12.30
2013,09,01,05,05,12.30
2013,09,01,05,06,12.30
2013,09,01,05,07,12.30
2013,09,01,05,08,12.30
2013,09,01,05,09,12.30
2013,09,01,05,10,12.30
2013,09,01,05,11,12.30
2013,09,01,05,12,12.30
2013,09,01,05,13,12.30
2013,09,01,05,14,12.30
2013,09,01,05,15,12.30
2013,09,01,05,16,12.30
2013,09,01,05,17,12.30
2013,09,01,05,18,12.30
2013,09,01,05,19,12.30
2013,09,01,05,20,12.30
2013,09,01,05,21,12.30
2013,09,01,05,22,12.30
2013,09,01,05,23,12.30
2013,09,01,05,24,12.30
2013,09,01,05,25,12.30
2013,09,01,05,26,12.30
2013,09,01,05,27,12.30
2013,09,01,05,28,12.30
2013,09,01,05,29,12.30
2013,09,01,05,30,12.30
2013,09,01,05,31,12.30
2013,09,01,05,32,12.30
2013,09,01,05,33,12.30
2013,09,01,05,34,12.30
2013,09,01,05,35,12.30
2013,09,01,05,36,12.30
2013,09,01,05,37,12.30
2013,09,01,05,38,12.30
2013,09,01,05,39,12.30
2013,09,01,05,40,12.20
2013,09,01,05,41,12.20
2013,09,01,05,42,12.20
2013,09,01,05,43,12.20
2013,09,01,05,44,12.20
2013,09,01,05,45,12.20
2013,09,01,05,46,12.20
2013,09,01,05,47,12.20
2013,09,01,05,48,12.20
2013,09,01,05,49,12.20
2013,09,01,05,50,12.20
2013,09,01,05,51,12.20
2013,09,01,05,52,12.20
2013,09,01,05,53,12.20
2013,09,01,05,54,12.20
2013,09,01,05,55,12.20
2013,09,01,05,56,12.20
2013,09,01,05,57,12.20
2013,09,01,05,58,12.20
2013,09,01,05,59,12.20
2013,09,01,06,00,12.20
2013,09,01,06,01,12.20
2013,09,01,06,02,12.20
2013,09,01,06,03,12.20
2013,09,01,06,04,12.20
2013,09,01,06,05,12.20
2013,09,01,06,06,12.20
2013,09,01,06,07,12.20
2013,09,01,06,08,12.20
2013,09,01,06,09,12.20
2013,09,01,06,10,12.20
2013,09,01,06,11,12.30
2013,09,01,06,12,12.30
2013,09,01,06,13,12.30
2013,09,01,06,14,12.30
2013,09,01,06,15,12.30
2013,09,01,06,16,12.30
2013,09,01,06,17,12.30
2013,09,01,06,18,12.30
2013,09,01,06,19,12.30
2013,09,01,06,20,12.30
2013,09,01,06,21,12.30
2013,09,01,06,22,12.30
2013,09,01,06,23,12.30
2013,09,01,06,24,12.30
2013,09,01,06,25,12.30
2013,09,01,06,26,12.30
2013,09,01,06,27,12.30
2013,09,01,06,28,12.30
2013,09,01,06,29,12.40
2013,09,01,06,30,12.40
2013,09,01,06,31,12.40
2013,09,01,06,32,12.40
2013,09,01,06,33,12.40
2013,09,01,06,34,12.40
2013,09,01,06,35,12.40
2013,09,01,06,36,12.40
2013,09,01,06,37,12.40
2013,09,01,06,38,12.40
2013,09,01,06,39,12.40
2013,09,01,06,40,12.40
2013,09,01,06,41,12.40
2013,09,01,06,42,12.40
2013,09,01,06,43,12.40
2013,09,01,06,44,12.40
2013,09,01,06,45,12.50
2013,09,01,06,46,12.50
2013,09,01,06,47,12.50
2013,09,01,06,48,12.50
2013,09,01,06,49,12.50
2013,09,01,06,50,12.50
2013,09,01,06,51,12.50
2013,09,01,06,52,12.50
2013,09,01,06,53,12.50
2013,09,01,06,54,12.50
2013,09,01,06,55,12.50
2013,09,01,06,56,12.50
2013,09,01,06,57,12.50
2013,09,01,06,58,12.50
2013,09,01,06,59,12.50
2013,09,01,07,00,12.50
2013,09,01,07,01,12.50
2013,09,01,07,02,12.50
2013,09,01,07,03,12.50
2013,09,01,07,04,12.50
2013,09,01,07,05,12.50
2013,09,01,07,06,12.50
2013,09,01,07,07,12.50
2013,09,01,07,08,12.50
2013,09,01,07,09,12.50
2013,09,01,07,10,12.50
2013,09,01,07,11,12.50
2013,09,01,07,12,12.50
2013,09,01,07,13,12.50
2013,09,01,07,14,12.50
2013,09,01,07,15,12.50
2013,09,01,07,16,12.50
2013,09,01,07,17,12.50
2013,09,01,07,18,12.50
2013,09,01,07,19,12.50
2013,09,01,07,20,12.50
2013,09,01,07,21,12.50
2013,09,01,07,22,12.50
2013,09,01,07,23,12.50
2013,09,01,07,24,12.50
2013,09,01,07,25,12.50
2013,09,01,07,26,12.50
2013,09,01,07,27,12.50
2013,09,01,07,28,12.50
2013,09,01,07,29,12.60
2013,09,01,07,30,12.60
2013,09,01,07,31,12.60
2013,09,01,07,32,12.60
2013,09,01,07,33,12.60
2013,09,01,07,34,12.60
2013,09,01,07,35,12.60
2013,09,01,07,36,12.60
2013,09,01,07,37,12.60
2013,09,01,07,38,12.60
2013,09,01,07,39,12.60
2013,09,01,07,40,12.60
2013,09,01,07,41,12.60
2013,09,01,07,42,12.60
2013,09,01,07,43,12.60
2013,09,01,07,44,12.60
2013,09,01,07,45,12.70
2013,09,01,07,46,12.70
2013,09,01,07,47,12.70
2013,09,01,07,48,12.70
2013,09,01,07,49,12.70
2013,09,01,07,50,12.70
2013,09,01,07,51,12.70
2013,09,01,07,52,12.70
2013,09,01,07,53,12.70
2013,09,01,07,54,12.80
2013,09,01,07,55,12.80
2013,09,01,07,56,12.80
2013,09,01,07,57,12.80
2013,09,01,07,58,12.90
2013,09,01,07,59,12.90
2013,09,01,08,00,12.90
2013,09,01,08,01,12.90
2013,09,01,08,02,12.90
2013,09,01,08,03,12.90
2013,09,01,08,04,12.90
2013,09,01,08,05,12.90
2013,09,01,08,06,13.00
2013,09,01,08,07,13.00
2013,09,01,08,08,13.00
2013,09,01,08,09,13.00
2013,09,01,08,10,13.00
2013,09,01,08,11,13.00
2013,09,01,08,12,13.10
2013,09,01,08,13,13.10
2013,09,01,08,14,13.10
2013,09,01,08,15,13.10
2013,09,01,08,16,13.10
2013,09,01,08,17,13.10
2013,09,01,08,18,13.10
2013,09,01,08,19,13.10
2013,09,01,08,20,13.10
2013,09,01,08,21,13.10
2013,09,01,08,22,13.10
2013,09,01,08,23,13.10
2013,09,01,08,24,13.10
2013,09,01,08,25,13.10
2013,09,01,08,26,13.10
2013,09,01,08,27,13.10
2013,09,01,08,28,13.10
2013,09,01,08,29,13.10
2013,09,01,08,30,13.10
2013,09,01,08,31,13.20
2013,09,01,08,32,13.20
2013,09,01,08,33,13.20
2013,09,01,08,34,13.20
2013,09,01,08,35,13.20
2013,09,01,08,36,13.20
2013,09,01,08,37,13.20
2013,09,01,08,38,13.20
2013,09,01,08,39,13.20
2013,09,01,08,40,13.20
2013,09,01,08,41,13.30
2013,09,01,08,42,13.30
2013,09,01,08,43,13.30
2013,09,01,08,44,13.30
2013,09,01,08,45,13.40
2013,09,01,08,46,13.40
2013,09,01,08,47,13.50
2013,09,01,08,48,13.60
2013,09,01,08,49,13.60
2013,09,01,08,50,13.60
2013,09,01,08,51,13.70
2013,09,01,08,52,13.70
2013,09,01,08,53,13.70
2013,09,01,08,54,13.70
2013,09,01,08,55,13.70
2013,09,01,08,56,13.70
2013,09,01,08,57,13.80
2013,09,01,08,58,13.80
2013,09,01,08,59,13.80
2013,09,01,09,00,13.80
2013,09,01,09,01,13.90
2013,09,01,09,02,13.90
2013,09,01,09,03,13.90
2013,09,01,09,04,13.90
2013,09,01,09,05,13.90
2013,09,01,09,06,13.90
2013,09,01,09,07,13.90
2013,09,01,09,08,13.90
2013,09,01,09,09,13.90
2013,09,01,09,10,14.00
2013,09,01,09,11,14.00
2013,09,01,09,12,14.00
2013,09,01,09,13,14.00
2013,09,01,09,14,14.10
2013,09,01,09,15,14.10
2013,09,01,09,16,14.10
2013,09,01,09,17,14.10
2013,09,01,09,18,14.10
2013,09,01,09,19,14.10
2013,09,01,09,20,14.10
2013,09,01,09,21,14.10
2013,09,01,09,22,14.20
2013,09,01,09,23,14.20
2013,09,01,09,24,14.20
2013,09,01,09,25,14.20
2013,09,01,09,26,14.20
2013,09,01,09,27,14.30
2013,09,01,09,28,14.30
2013,09,01,09,29,14.40
2013,09,01,09,30,14.40
2013,09,01,09,31,14.40
2013,09,01,09,32,14.50
2013,09,01,09,33,14.50
2013,09,01,09,34,14.60
2013,09,01,09,35,14.60
2013,09,01,09,36,14.60
2013,09,01,09,37,14.70
2013,09,01,09,38,14.70
2013,09,01,09,39,14.70
2013,09,01,09,40,14.70
2013,09,01,09,41,14.70
2013,09,01,09,42,14.70
2013,09,01,09,43,14.70
2013,09,01,09,44,14.80
2013,09,01,09,45,14.80
2013,09,01,09,46,14.80
2013,09,01,09,47,14.80
2013,09,01,09,48,14.80
2013,09,01,09,49,14.80
2013,09,01,09,50,14.80
2013,09,01,09,51,14.80
2013,09,01,09,52,14.90
2013,09,01,09,53,14.90
2013,09,01,09,54,15.00
2013,09,01,09,55,15.00
2013,09,01,09,56,15.10
2013,09,01,09,57,15.10
2013,09,01,09,58,15.20
2013,09,01,09,59,15.20
2013,09,01,10,00,15.30
2013,09,01,10,01,15.30
2013,09,01,10,02,15.30
2013,09,01,10,03,15.40
2013,09,01,10,04,15.40
2013,09,01,10,05,15.50
2013,09,01,10,06,15.50
2013,09,01,10,07,15.60
2013,09,01,10,08,15.60
2013,09,01,10,09,15.70
2013,09,01,10,10,15.80
2013,09,01,10,11,15.90
2013,09,01,10,12,16.00
2013,09,01,10,13,16.20
2013,09,01,10,14,16.30
2013,09,01,10,15,16.40
2013,09,01,10,16,16.50
2013,09,01,10,17,16.70
2013,09,01,10,18,16.80
2013,09,01,10,19,16.90
2013,09,01,10,20,17.00
2013,09,01,10,21,17.00
2013,09,01,10,22,17.10
2013,09,01,10,23,17.10
2013,09,01,10,24,17.20
2013,09,01,10,25,17.20
2013,09,01,10,26,17.20
2013,09,01,10,27,17.20
2013,09,01,10,28,17.30
2013,09,01,10,29,17.30
2013,09,01,10,30,17.30
2013,09,01,10,31,17.40
2013,09,01,10,32,17.40
2013,09,01,10,33,17.50
2013,09,01,10,34,17.50
2013,09,01,10,35,17.60
2013,09,01,10,36,17.60
2013,09,01,10,37,17.70
2013,09,01,10,38,17.70
2013,09,01,10,39,17.70
2013,09,01,10,40,17.80
2013,09,01,10,41,17.80
2013,09,01,10,42,17.90
2013,09,01,10,43,18.00
2013,09,01,10,44,18.00
2013,09,01,10,45,18.10
2013,09,01,10,46,18.10
2013,09,01,10,47,18.10
2013,09,01,10,48,18.10
2013,09,01,10,49,18.20
2013,09,01,10,50,18.20
2013,09,01,10,51,18.30
2013,09,01,10,52,18.40
2013,09,01,10,53,18.40
2013,09,01,10,54,18.50
2013,09,01,10,55,18.50
2013,09,01,10,56,18.50
2013,09,01,10,57,18.60
2013,09,01,10,58,18.70
2013,09,01,10,59,18.70
2013,09,01,11,00,18.80
2013,09,01,11,01,18.80
2013,09,01,11,02,18.90
2013,09,01,11,03,18.90
2013,09,01,11,04,19.00
2013,09,01,11,05,19.00
2013,09,01,11,06,19.10
2013,09,01,11,07,19.10
2013,09,01,11,08,19.20
2013,09,01,11,09,19.20
2013,09,01,11,10,19.20
2013,09,01,11,11,19.20
2013,09,01,11,12,19.20
2013,09,01,11,13,19.30
2013,09,01,11,14,19.30
2013,09,01,11,15,19.30
2013,09,01,11,16,19.40
2013,09,01,11,17,19.40
2013,09,01,11,18,19.40
2013,09,01,11,19,19.50
2013,09,01,11,20,19.50
2013,09,01,11,21,19.60
2013,09,01,11,22,19.60
2013,09,01,11,23,19.60
2013,09,01,11,24,19.70
2013,09,01,11,25,19.70
2013,09,01,11,26,19.70
2013,09,01,11,27,19.70
2013,09,01,11,28,19.80
2013,09,01,11,29,19.80
2013,09,01,11,30,19.90
2013,09,01,11,31,19.90
2013,09,01,11,32,20.00
2013,09,01,11,33,20.00
2013,09,01,11,34,20.10
2013,09,01,11,35,20.10
2013,09,01,11,36,20.20
2013,09,01,11,37,20.30
2013,09,01,11,38,20.30
2013,09,01,11,39,20.30
2013,09,01,11,40,20.30
2013,09,01,11,41,20.30
2013,09,01,11,42,20.40
2013,09,01,11,43,20.50
2013,09,01,11,44,20.50
2013,09,01,11,45,20.50
2013,09,01,11,46,20.50
2013,09,01,11,47,20.40
2013,09,01,11,48,20.40
2013,09,01,11,49,20.40
2013,09,01,11,50,20.30
2013,09,01,11,51,20.40
2013,09,01,11,52,20.40
2013,09,01,11,53,20.50
2013,09,01,11,54,20.60
2013,09,01,11,55,20.70
2013,09,01,11,56,20.70
2013,09,01,11,57,20.70
2013,09,01,11,58,20.70
2013,09,01,11,59,20.70
2013,09,01,12,00,20.70
2013,09,01,12,01,20.70
2013,09,01,12,02,20.70
2013,09,01,12,03,20.80
2013,09,01,12,04,20.80
2013,09,01,12,05,20.80
2013,09,01,12,06,20.80
2013,09,01,12,07,20.90
2013,09,01,12,08,20.80
2013,09,01,12,09,20.80
2013,09,01,12,10,20.90
2013,09,01,12,11,20.90
2013,09,01,12,12,20.90
2013,09,01,12,13,21.00
2013,09,01,12,14,21.00
2013,09,01,12,15,21.00
2013,09,01,12,16,21.00
2013,09,01,12,17,21.00
2013,09,01,12,18,21.10
2013,09,01,12,19,21.20
2013,09,01,12,20,21.20
2013,09,01,12,21,21.30
2013,09,01,12,22,21.30
2013,09,01,12,23,21.30
2013,09,01,12,24,21.30
2013,09,01,12,25,21.30
2013,09,01,12,26,21.40
2013,09,01,12,27,21.40
2013,09,01,12,28,21.40
2013,09,01,12,29,21.50
2013,09,01,12,30,21.60
2013,09,01,12,31,21.60
2013,09,01,12,32,21.70
2013,09,01,12,33,21.70
2013,09,01,12,34,21.70
2013,09,01,12,35,21.70
2013,09,01,12,36,21.70
2013,09,01,12,37,21.60
2013,09,01,12,38,21.60
2013,09,01,12,39,21.70
2013,09,01,12,40,21.60
2013,09,01,12,41,21.60
2013,09,01,12,42,21.60
2013,09,01,12,43,21.60
2013,09,01,12,44,21.70
2013,09,01,12,45,21.70
2013,09,01,12,46,21.70
2013,09,01,12,47,21.70
2013,09,01,12,48,21.70
2013,09,01,12,49,21.80
2013,09,01,12,50,21.80
2013,09,01,12,51,21.80
2013,09,01,12,52,21.90
2013,09,01,12,53,21.90
2013,09,01,12,54,22.00
2013,09,01,12,55,22.00
2013,09,01,12,56,22.00
2013,09,01,12,57,22.00
2013,09,01,12,58,22.00
2013,09,01,12,59,22.00
2013,09,01,13,00,21.90
2013,09,01,13,01,21.90
2013,09,01,13,02,21.90
2013,09,01,13,03,21.90
2013,09,01,13,04,21.90
2013,09,01,13,05,22.00
2013,09,01,13,06,22.00
2013,09,01,13,07,22.10
2013,09,01,13,08,22.20
2013,09,01,13,09,22.20
2013,09,01,13,10,22.20
2013,09,01,13,11,22.20
2013,09,01,13,12,22.20
2013,09,01,13,13,22.20
2013,09,01,13,14,22.30
2013,09,01,13,15,22.30
2013,09,01,13,16,22.20
2013,09,01,13,17,22.20
2013,09,01,13,18,22.20
2013,09,01,13,19,22.20
2013,09,01,13,20,22.20
2013,09,01,13,21,22.20
2013,09,01,13,22,22.20
2013,09,01,13,23,22.20
2013,09,01,13,24,22.20
2013,09,01,13,25,22.30
2013,09,01,13,26,22.40
2013,09,01,13,27,22.50
2013,09,01,13,28,22.50
2013,09,01,13,29,22.40
2013,09,01,13,30,22.50
2013,09,01,13,31,22.50
2013,09,01,13,32,22.50
2013,09,01,13,33,22.60
2013,09,01,13,34,22.70
2013,09,01,13,35,22.80
2013,09,01,13,36,22.80
2013,09,01,13,37,22.80
2013,09,01,13,38,22.80
2013,09,01,13,39,22.80
2013,09,01,13,40,22.80
2013,09,01,13,41,22.80
2013,09,01,13,42,22.80
2013,09,01,13,43,22.80
2013,09,01,13,44,22.90
2013,09,01,13,45,23.00
2013,09,01,13,46,23.00
2013,09,01,13,47,23.10
2013,09,01,13,48,23.10
2013,09,01,13,49,23.10
2013,09,01,13,50,23.10
2013,09,01,13,51,23.00
2013,09,01,13,52,23.10
2013,09,01,13,53,23.10
2013,09,01,13,54,23.10
2013,09,01,13,55,23.20
2013,09,01,13,56,23.20
2013,09,01,13,57,23.20
2013,09,01,13,58,23.20
2013,09,01,13,59,23.30
2013,09,01,14,00,23.20
2013,09,01,14,01,23.20
2013,09,01,14,02,23.20
2013,09,01,14,03,23.20
2013,09,01,14,04,23.10
2013,09,01,14,05,23.10
2013,09,01,14,06,23.10
2013,09,01,14,07,23.10
2013,09,01,14,08,23.10
2013,09,01,14,09,23.20
2013,09,01,14,10,23.20
2013,09,01,14,11,23.20
2013,09,01,14,12,23.20
2013,09,01,14,13,23.20
2013,09,01,14,14,23.20
2013,09,01,14,15,23.20
2013,09,01,14,16,23.20
2013,09,01,14,17,23.20
2013,09,01,14,18,23.20
2013,09,01,14,19,23.20
2013,09,01,14,20,23.20
2013,09,01,14,21,23.20
2013,09,01,14,22,23.20
2013,09,01,14,23,23.20
2013,09,01,14,24,23.30
2013,09,01,14,25,23.20
2013,09,01,14,26,23.30
2013,09,01,14,27,23.20
2013,09,01,14,28,23.20
2013,09,01,14,29,23.20
2013,09,01,14,30,23.20
2013,09,01,14,31,23.30
2013,09,01,14,32,23.30
2013,09,01,14,33,23.40
2013,09,01,14,34,23.40
2013,09,01,14,35,23.40
2013,09,01,14,36,23.40
2013,09,01,14,37,23.50
2013,09,01,14,38,23.40
2013,09,01,14,39,23.40
2013,09,01,14,40,23.40
2013,09,01,14,41,23.40
2013,09,01,14,42,23.40
2013,09,01,14,43,23.40
2013,09,01,14,44,23.40
2013,09,01,14,45,23.50
2013,09,01,14,46,23.50
2013,09,01,14,47,23.50
2013,09,01,14,48,23.60
2013,09,01,14,49,23.60
2013,09,01,14,50,23.60
2013,09,01,14,51,23.60
2013,09,01,14,52,23.60
2013,09,01,14,53,23.70
2013,09,01,14,54,23.70
2013,09,01,14,55,23.70
2013,09,01,14,56,23.70
2013,09,01,14,57,23.70
2013,09,01,14,58,23.80
2013,09,01,14,59,23.80
2013,09,01,15,00,23.80
2013,09,01,15,01,23.80
2013,09,01,15,02,23.80
2013,09,01,15,03,23.80
2013,09,01,15,04,23.80
2013,09,01,15,05,23.80
2013,09,01,15,06,23.80
2013,09,01,15,07,23.80
2013,09,01,15,08,23.80
2013,09,01,15,09,23.80
2013,09,01,15,10,23.90
2013,09,01,15,11,23.90
2013,09,01,15,12,23.90
2013,09,01,15,13,23.90
2013,09,01,15,14,23.90
2013,09,01,15,15,23.90
2013,09,01,15,16,24.00
2013,09,01,15,17,24.10
2013,09,01,15,18,24.10
2013,09,01,15,19,24.10
2013,09,01,15,20,24.20
2013,09,01,15,21,24.20
2013,09,01,15,22,24.10
2013,09,01,15,23,24.00
2013,09,01,15,24,24.00
2013,09,01,15,25,23.90
2013,09,01,15,26,23.80
2013,09,01,15,27,23.80
2013,09,01,15,28,23.80
2013,09,01,15,29,23.80
2013,09,01,15,30,23.70
2013,09,01,15,31,23.70
2013,09,01,15,32,23.50
2013,09,01,15,33,23.50
2013,09,01,15,34,23.40
2013,09,01,15,35,23.30
2013,09,01,15,36,23.30
2013,09,01,15,37,23.20
2013,09,01,15,38,23.20
2013,09,01,15,39,23.20
2013,09,01,15,40,23.20
2013,09,01,15,41,23.20
2013,09,01,15,42,23.20
2013,09,01,15,43,23.20
2013,09,01,15,44,23.20
2013,09,01,15,45,23.30
2013,09,01,15,46,23.30
2013,09,01,15,47,23.30
2013,09,01,15,48,23.30
2013,09,01,15,49,23.30
2013,09,01,15,50,23.30
2013,09,01,15,51,23.30
2013,09,01,15,52,23.30
2013,09,01,15,53,23.30
2013,09,01,15,54,23.30
2013,09,01,15,55,23.40
2013,09,01,15,56,23.40
2013,09,01,15,57,23.40
2013,09,01,15,58,23.30
2013,09,01,15,59,23.40
2013,09,01,16,00,23.40
2013,09,01,16,01,23.40
2013,09,01,16,02,23.40
2013,09,01,16,03,23.40
2013,09,01,16,04,23.40
2013,09,01,16,05,23.30
2013,09,01,16,06,23.30
2013,09,01,16,07,23.30
2013,09,01,16,08,23.30
2013,09,01,16,09,23.30
2013,09,01,16,10,23.20
2013,09,01,16,11,23.20
2013,09,01,16,12,23.20
2013,09,01,16,13,23.10
2013,09,01,16,14,23.10
2013,09,01,16,15,23.00
2013,09,01,16,16,23.00
2013,09,01,16,17,23.00
2013,09,01,16,18,22.90
2013,09,01,16,19,23.00
2013,09,01,16,20,23.00
2013,09,01,16,21,23.00
2013,09,01,16,22,23.00
2013,09,01,16,23,23.00
2013,09,01,16,24,23.00
2013,09,01,16,25,23.00
2013,09,01,16,26,23.00
2013,09,01,16,27,23.00
2013,09,01,16,28,23.00
2013,09,01,16,29,23.00
2013,09,01,16,30,23.00
2013,09,01,16,31,23.00
2013,09,01,16,32,23.00
2013,09,01,16,33,23.00
2013,09,01,16,34,23.00
2013,09,01,16,35,23.00
2013,09,01,16,36,23.00
2013,09,01,16,37,22.90
2013,09,01,16,38,22.90
2013,09,01,16,39,22.90
2013,09,01,16,40,22.90
2013,09,01,16,41,22.90
2013,09,01,16,42,22.90
2013,09,01,16,43,22.80
2013,09,01,16,44,22.80
2013,09,01,16,45,22.80
2013,09,01,16,46,22.80
2013,09,01,16,47,22.80
2013,09,01,16,48,22.80
2013,09,01,16,49,22.80
2013,09,01,16,50,22.80
2013,09,01,16,51,22.80
2013,09,01,16,52,22.80
2013,09,01,16,53,22.80
2013,09,01,16,54,22.90
2013,09,01,16,55,22.90
2013,09,01,16,56,22.90
2013,09,01,16,57,23.00
2013,09,01,16,58,23.00
2013,09,01,16,59,23.10
2013,09,01,17,00,23.10
2013,09,01,17,01,23.20
2013,09,01,17,02,23.20
2013,09,01,17,03,23.20
2013,09,01,17,04,23.20
2013,09,01,17,05,23.20
2013,09,01,17,06,23.20
2013,09,01,17,07,23.20
2013,09,01,17,08,23.20
2013,09,01,17,09,23.10
2013,09,01,17,10,23.10
2013,09,01,17,11,23.10
2013,09,01,17,12,23.10
2013,09,01,17,13,23.10
2013,09,01,17,14,23.00
2013,09,01,17,15,23.10
2013,09,01,17,16,23.00
2013,09,01,17,17,23.00
2013,09,01,17,18,23.00
2013,09,01,17,19,23.00